FW2977 Weather Reports


Display with metric or nautical units.
time (UTC)temp
F
wind
direction
speed
MPH
gust
MPH
rain 1hr
in
rain 24hr
in
rain mn
in
humidity
%
barometer
mb
20260509004523 48 22 2.0 5.0 0.00 0.00 0.00 63 957.3
20260509003015 49 24 3.0 4.0 0.00 0.00 0.00 59 957.2
20260509001515 49 12 2.0 3.0 0.00 0.00 0.00 58 957.1
20260509000014 49 338 0.0 3.0 0.00 0.00 0.00 57 956.9
20260508234515 50 337 0.0 1.0 0.00 0.00 0.00 56 956.8
20260508233013 50 337 0.0 3.0 0.00 0.00 0.00 58 956.6
20260508231512 50 337 1.0 3.0 0.00 0.00 0.00 57 956.6
20260508230012 51 337 0.0 1.0 0.00 0.00 0.00 57 956.6
20260508224511 51 336 0.0 2.0 0.00 0.00 0.00 60 956.7
20260508223022 51 296 0.0 4.0 0.00 0.00 0.00 53 956.6
20260508221509 52 249 2.0 4.0 0.00 0.00 0.00 51 956.6
20260508220010 52 269 2.0 4.0 0.00 0.00 0.00 50 956.6
20260508214509 53 245 1.0 4.0 0.00 0.00 0.00 51 956.5
20260508213019 54 232 2.0 5.0 0.00 0.00 0.00 50 956.8
20260508211507 54 241 1.0 4.0 0.00 0.00 0.00 49 956.7
20260508210009 53 250 2.0 5.0 0.00 0.00 0.00 50 956.6
20260508204506 54 245 4.0 8.0 0.00 0.00 0.00 49 956.8
20260508203004 54 247 2.0 5.0 0.00 0.00 0.00 48 956.9
20260508201506 52 255 4.0 9.0 0.00 0.00 0.00 53 957.1
20260508200006 54 244 3.0 5.0 0.00 0.00 0.00 51 957.4
20260508194502 53 209 3.0 6.0 0.00 0.00 0.00 54 957.5
20260508193105 54 248 2.0 10.0 0.00 0.00 0.00 49 957.5
20260508191556 53 248 4.0 11.0 0.00 0.00 0.00 52 957.7
20260508190054 53 266 4.0 9.0 0.00 0.00 0.00 54 957.8
20260508184551 51 245 4.0 9.0 0.00 0.00 0.00 60 958.1
20260508183049 51 238 3.0 5.0 0.00 0.00 0.00 65 958.3
20260508181556 50 163 2.0 7.0 0.00 0.00 0.00 66 958.4
20260508180045 48 146 3.0 10.0 0.00 0.00 0.00 68 958.5
20260508174553 46 244 2.0 4.0 0.00 0.00 0.00 73 958.6
20260508173042 46 235 3.0 7.0 0.00 0.00 0.00 74 958.5
20260508171540 46 271 3.0 6.0 0.00 0.00 0.00 74 958.7
20260508170037 44 244 2.0 4.0 0.00 0.00 0.00 80 958.7
20260508164535 43 252 2.0 5.0 0.00 0.00 0.00 84 958.7
20260508163035 41 298 1.0 4.0 0.00 0.00 0.00 87 958.8
20260508161531 39 319 0.0 4.0 0.00 0.00 0.00 89 958.8
20260508160029 40 271 1.0 3.0 0.00 0.00 0.00 88 959.0
20260508154527 41 280 1.0 6.0 0.00 0.00 0.00 86 958.6
20260508153030 41 288 0.0 1.0 0.00 0.00 0.00 85 958.3
20260508151525 41 355 0.0 1.0 0.00 0.00 0.00 84 958.4
20260508150046 40 46 0.0 1.0 0.00 0.00 0.00 87 958.3
20260508144524 40 46 0.0 3.0 0.00 0.00 0.00 87 958.5
20260508143023 40 184 0.0 2.0 0.00 0.00 0.00 87 958.2
20260508141529 40 245 1.0 3.0 0.00 0.00 0.00 86 958.4
20260508140027 40 241 1.0 5.0 0.00 0.00 0.00 84 958.4
20260508134520 41 203 0.0 2.0 0.00 0.00 0.00 84 958.1
20260508133021 41 146 0.0 0.0 0.00 0.00 0.00 84 957.9
20260508131517 41 142 0.0 6.0 0.00 0.00 0.00 83 957.8
20260508130016 41 151 3.0 7.0 0.00 0.00 0.00 84 957.6
20260508124515 41 94 3.0 6.0 0.00 0.00 0.00 85 957.5
20260508123016 40 124 0.0 3.0 0.00 0.00 0.00 84 957.7
20260508121512 40 163 0.0 4.0 0.00 0.00 0.00 84 957.8
20260508120010 40 90 1.0 3.0 0.00 0.00 0.00 84 957.6
20260508114509 40 250 0.0 0.0 0.00 0.00 0.00 83 957.9
20260508113008 39 250 0.0 0.0 0.00 0.00 0.00 84 957.9
20260508111506 39 250 0.0 0.0 0.00 0.00 0.00 86 957.8
20260508110005 38 250 0.0 1.0 0.00 0.00 0.00 87 957.9
20260508104504 38 250 0.0 0.0 0.00 0.00 0.00 90 957.8
20260508103031 37 250 0.0 2.0 0.00 0.00 0.00 90 957.8
20260508101557 36 249 0.0 0.0 0.00 0.00 0.00 91 957.8
20260508100056 36 249 0.0 0.0 0.00 0.00 0.00 90 957.9
20260508094554 36 249 0.0 0.0 0.00 0.00 0.00 90 957.8
20260508093052 36 249 0.0 0.0 0.00 0.00 0.00 90 957.5
20260508091600 36 249 0.0 0.0 0.00 0.00 0.00 89 957.6
20260508090046 37 249 0.0 1.0 0.00 0.00 0.00 88 957.3
20260508084550 38 249 1.0 3.0 0.00 0.00 0.00 88 957.2
20260508083051 38 242 3.0 7.0 0.00 0.00 0.00 87 957.4
20260508081543 39 252 3.0 7.0 0.00 0.00 0.00 87 957.0
20260508080054 39 244 3.0 8.0 0.00 0.00 0.00 86 956.8
20260508074537 40 234 4.0 9.0 0.00 0.00 0.00 86 956.9
20260508073032 40 236 2.0 9.0 0.00 0.00 0.00 86 957.0
20260508071531 41 218 2.0 10.0 0.00 0.00 0.00 86 957.1
20260508070028 41 159 2.0 6.0 0.00 0.00 0.00 85 957.0
20260508064539 41 119 3.0 6.0 0.00 0.00 0.00 83 956.9
20260508063023 41 170 1.0 3.0 0.00 0.00 0.00 82 957.0
20260508061520 41 161 1.0 5.0 0.00 0.00 0.00 80 957.0
20260508060019 41 140 1.0 3.0 0.00 0.00 0.00 79 956.8
20260508054532 41 157 0.0 2.0 0.00 0.00 0.00 77 957.0
20260508053015 42 152 1.0 4.0 0.00 0.00 0.00 75 957.0
20260508051513 42 167 0.0 3.0 0.00 0.00 0.00 72 957.1
20260508050010 42 165 0.0 2.0 0.00 0.00 0.00 72 957.0
20260508044510 43 165 0.0 3.0 0.00 0.00 0.00 71 957.4
20260508043002 43 165 0.0 3.0 0.00 0.00 0.00 70 957.4
20260508041603 43 161 2.0 4.0 0.00 0.00 0.00 68 957.3
20260508040100 42 80 0.0 2.0 0.00 0.00 0.00 69 957.2
20260508034554 42 80 0.0 1.0 0.00 0.00 0.00 71 957.1
20260508033053 43 80 2.0 3.0 0.00 0.00 0.00 68 956.7
20260508031553 43 360 0.0 1.0 0.00 0.00 0.00 67 956.8
20260508030056 43 360 0.0 1.0 0.00 0.00 0.00 65 956.6
20260508024553 43 350 0.0 3.0 0.00 0.00 0.00 65 956.5
20260508023051 43 33 1.0 3.0 0.00 0.00 0.00 66 956.4
20260508021551 42 227 0.0 1.0 0.00 0.00 0.00 68 956.2
20260508020056 43 206 0.0 3.0 0.00 0.00 0.00 67 956.4
20260508014551 43 71 1.0 2.0 0.00 0.00 0.00 67 956.2
20260508013049 43 280 0.0 3.0 0.00 0.00 0.00 70 956.1
20260508011551 44 297 1.0 3.0 0.00 0.00 0.00 69 956.1
20260508010049 44 307 0.0 2.0 0.00 0.00 0.00 69 956.0